• In Hungary
  • List of Countries
  • For 7 days
  • Water Temperature
  • Satellite Maps
  • Weather Map
  • News
  • Weather Widgets
  • user-avatar
    Login

    Hourly Weather Domaczka

    Today, 19 July, Thursday

    Time Temperature Precipitation Wind Pressure Humidity
    00:00 +15°C° 0.3 mm 4 mps 701 mmHg 96%
    01:00 +16°C° 0.3 mm 3 mps 702 mmHg 96%
    02:00 +16°C° 0.3 mm 3 mps 702 mmHg 96%
    03:00 +16°C° 0.3 mm 3 mps 702 mmHg 96%
    04:00 +16°C° 0.3 mm 3 mps 702 mmHg 96%
    05:00 +16°C° 0.5 mm 3 mps 702 mmHg 96%
    06:00 +16°C° 0.5 mm 3 mps 702 mmHg 96%
    07:00 +16°C° 0.5 mm 3 mps 702 mmHg 96%
    08:00 +16°C° 0.6 mm 3 mps 702 mmHg 96%
    09:00 +16°C° 0.6 mm 3 mps 703 mmHg 95%
    10:00 +16°C° 0.6 mm 3 mps 703 mmHg 95%
    11:00 +16°C° 0.4 mm 3 mps 703 mmHg 94%
    12:00 +16°C° 0.4 mm 3 mps 703 mmHg 94%
    13:00 +17°C° 0.4 mm 3 mps 703 mmHg 93%
    14:00 +17°C° 0.1 mm 3 mps 703 mmHg 92%
    15:00 +17°C° 0.1 mm 3 mps 703 mmHg 91%
    16:00 +17°C° 0.1 mm 3 mps 703 mmHg 91%
    17:00 +17°C° 0.1 mm 3 mps 703 mmHg 92%
    18:00 +17°C° 0.1 mm 3 mps 703 mmHg 93%
    19:00 +16°C° 0.1 mm 2 mps 703 mmHg 94%
    20:00 +16°C° 0.2 mm 2 mps 703 mmHg 95%
    21:00 +16°C° 0.2 mm 2 mps 703 mmHg 96%
    22:00 +16°C° 0.2 mm 2 mps 704 mmHg 96%
    23:00 +16°C° 0.4 mm 2 mps 703 mmHg 96%

    Tomorrow, 20 July, Friday

    Time Temperature Precipitation Wind Pressure Humidity
    00:00 +16°C° 0.4 mm 2 mps 703 mmHg 97%
    01:00 +16°C° 0.4 mm 2 mps 703 mmHg 97%
    02:00 +16°C° 0.4 mm 2 mps 703 mmHg 97%
    03:00 +15°C° 0.4 mm 2 mps 703 mmHg 97%
    04:00 +15°C° 0.4 mm 2 mps 703 mmHg 97%
    05:00 +15°C° 0.3 mm 2 mps 703 mmHg 97%
    06:00 +15°C° 0.3 mm 2 mps 703 mmHg 96%
    07:00 +15°C° 0.3 mm 2 mps 704 mmHg 96%
    08:00 +16°C° 0.3 mm 2 mps 704 mmHg 95%
    09:00 +16°C° 0.3 mm 2 mps 704 mmHg 94%
    10:00 +16°C° 0.3 mm 2 mps 704 mmHg 93%
    11:00 +17°C° 0.1 mm 2 mps 704 mmHg 88%
    12:00 +18°C° 0.1 mm 2 mps 704 mmHg 83%
    13:00 +20°C° 0.1 mm 2 mps 704 mmHg 77%
    14:00 +20°C° 0.1 mm 2 mps 704 mmHg 74%
    15:00 +21°C° 0.1 mm 3 mps 704 mmHg 71%
    16:00 +22°C° 0.1 mm 3 mps 704 mmHg 67%
    17:00 +21°C° 0.1 mm 2 mps 704 mmHg 72%
    18:00 +20°C° 0.1 mm 2 mps 704 mmHg 78%
    19:00 +19°C° 0.1 mm 1 mps 703 mmHg 83%
    20:00 +18°C° 0 mm 1 mps 704 mmHg 85%
    21:00 +16°C° 0 mm 1 mps 704 mmHg 88%
    22:00 +15°C° 0 mm 1 mps 704 mmHg 90%
    23:00 +15°C° 0 mm 1 mps 703 mmHg 91%

    Day after tomorrow, 21 July, Saturday

    Time Temperature Precipitation Wind Pressure Humidity
    00:00 +14°C° 0 mm 1 mps 703 mmHg 91%
    01:00 +14°C° 0 mm 1 mps 703 mmHg 92%
    02:00 +14°C° 0 mm 1 mps 703 mmHg 92%
    03:00 +14°C° 0 mm 1 mps 703 mmHg 92%
    04:00 +13°C° 0 mm 1 mps 703 mmHg 93%
    05:00 +15°C° 0 mm 1 mps 703 mmHg 88%
    06:00 +15°C° 0 mm 0 mps 703 mmHg 84%
    07:00 +17°C° 0 mm 0 mps 703 mmHg 80%
    08:00 +19°C° 0 mm 0 mps 704 mmHg 72%
    09:00 +21°C° 0 mm 0 mps 704 mmHg 65%
    10:00 +22°C° 0 mm 0 mps 704 mmHg 57%
    11:00 +25°C° 0 mm 1 mps 704 mmHg 53%
    12:00 +26°C° 0 mm 1 mps 704 mmHg 50%
    13:00 +26°C° 0 mm 1 mps 704 mmHg 46%
    14:00 +26°C° 0 mm 1 mps 704 mmHg 48%
    15:00 +26°C° 0 mm 1 mps 703 mmHg 49%
    16:00 +25°C° 0 mm 1 mps 703 mmHg 51%
    17:00 +24°C° 0 mm 1 mps 703 mmHg 57%
    18:00 +22°C° 0 mm 1 mps 703 mmHg 62%
    19:00 +21°C° 0 mm 1 mps 702 mmHg 67%
    20:00 +20°C° 0 mm 1 mps 702 mmHg 70%
    21:00 +19°C° 0 mm 1 mps 702 mmHg 73%
    22:00 +16°C° 0 mm 1 mps 702 mmHg 76%
    23:00 +16°C° 0 mm 1 mps 702 mmHg 79%

    22 July, Sunday

    Time Temperature Precipitation Wind Pressure Humidity
    00:00 +16°C° 0 mm 1 mps 702 mmHg 81%
    01:00 +15°C° 0 mm 1 mps 702 mmHg 83%
    02:00 +15°C° 0 mm 1 mps 701 mmHg 85%
    03:00 +15°C° 0 mm 1 mps 701 mmHg 87%
    04:00 +14°C° 0 mm 1 mps 701 mmHg 88%
    05:00 +16°C° 0 mm 1 mps 701 mmHg 85%
    06:00 +18°C° 0 mm 1 mps 702 mmHg 81%
    07:00 +20°C° 0 mm 1 mps 702 mmHg 77%
    08:00 +21°C° 0.2 mm 1 mps 702 mmHg 74%
    09:00 +21°C° 0.2 mm 2 mps 702 mmHg 70%
    10:00 +22°C° 0.2 mm 3 mps 702 mmHg 67%
    11:00 +22°C° 0.6 mm 3 mps 702 mmHg 66%
    12:00 +24°C° 0.6 mm 3 mps 702 mmHg 66%
    13:00 +24°C° 0.6 mm 3 mps 702 mmHg 66%
    14:00 +23°C° 0.5 mm 2 mps 702 mmHg 68%
    15:00 +23°C° 0.5 mm 2 mps 701 mmHg 70%
    16:00 +21°C° 0.5 mm 2 mps 701 mmHg 72%
    17:00 +21°C° 0.1 mm 2 mps 701 mmHg 74%
    18:00 +21°C° 0.1 mm 1 mps 701 mmHg 77%
    19:00 +20°C° 0.1 mm 1 mps 701 mmHg 79%
    20:00 +19°C° 0 mm 1 mps 702 mmHg 80%
    21:00 +19°C° 0 mm 1 mps 702 mmHg 81%
    22:00 +18°C° 0 mm 1 mps 702 mmHg 82%
    23:00 +16°C° 0 mm 1 mps 702 mmHg 83%

    23 July, Monday

    Time Temperature Precipitation Wind Pressure Humidity
    00:00 +16°C° 0 mm 1 mps 702 mmHg 84%
    01:00 +15°C° 0 mm 2 mps 702 mmHg 85%
    02:00 +15°C° 0 mm 1 mps 702 mmHg 85%
    03:00 +14°C° 0 mm 1 mps 702 mmHg 86%
    04:00 +14°C° 0 mm 1 mps 702 mmHg 86%
    05:00 +15°C° 0 mm 2 mps 703 mmHg 84%
    06:00 +16°C° 0 mm 2 mps 703 mmHg 82%
    07:00 +17°C° 0 mm 2 mps 703 mmHg 80%
    08:00 +19°C° 0 mm 3 mps 704 mmHg 73%
    09:00 +20°C° 0 mm 3 mps 704 mmHg 66%
    10:00 +22°C° 0 mm 4 mps 704 mmHg 59%
    11:00 +22°C° 0 mm 4 mps 704 mmHg 56%
    12:00 +23°C° 0 mm 4 mps 704 mmHg 53%
    13:00 +25°C° 0 mm 4 mps 704 mmHg 51%
    14:00 +25°C° 0 mm 4 mps 704 mmHg 52%
    15:00 +25°C° 0 mm 4 mps 704 mmHg 53%
    16:00 +23°C° 0 mm 4 mps 704 mmHg 54%
    17:00 +22°C° 0 mm 3 mps 704 mmHg 61%
    18:00 +21°C° 0 mm 3 mps 704 mmHg 68%
    19:00 +19°C° 0 mm 2 mps 704 mmHg 75%
    20:00 +18°C° 0 mm 2 mps 704 mmHg 79%
    21:00 +17°C° 0 mm 2 mps 705 mmHg 83%
    22:00 +16°C° 0 mm 1 mps 705 mmHg 87%
    23:00 +16°C° 0 mm 1 mps 705 mmHg 88%

    24 July, Tuesday

    Time Temperature Precipitation Wind Pressure Humidity
    00:00 +15°C° 0 mm 1 mps 705 mmHg 90%
    01:00 +15°C° 0 mm 1 mps 705 mmHg 91%
    02:00 +14°C° 0 mm 1 mps 705 mmHg 91%
    03:00 +14°C° 0 mm 1 mps 705 mmHg 91%
    04:00 +14°C° 0 mm 1 mps 705 mmHg 92%
    05:00 +15°C° 0 mm 1 mps 705 mmHg 87%
    06:00 +18°C° 0 mm 1 mps 706 mmHg 82%
    07:00 +19°C° 0 mm 1 mps 706 mmHg 78%
    08:00 +19°C° 0 mm 2 mps 706 mmHg 72%
    09:00 +21°C° 0 mm 2 mps 707 mmHg 67%
    10:00 +23°C° 0 mm 2 mps 707 mmHg 61%
    11:00 +24°C° 0 mm 3 mps 707 mmHg 60%
    12:00 +24°C° 0 mm 3 mps 707 mmHg 59%
    13:00 +25°C° 0 mm 3 mps 707 mmHg 58%
    14:00 +25°C° 0 mm 3 mps 707 mmHg 58%
    15:00 +25°C° 0 mm 3 mps 707 mmHg 59%
    16:00 +25°C° 0 mm 3 mps 706 mmHg 60%
    17:00 +24°C° 0 mm 2 mps 706 mmHg 66%
    18:00 +21°C° 0 mm 2 mps 706 mmHg 72%
    19:00 +20°C° 0 mm 2 mps 706 mmHg 78%
    20:00 +20°C° 0 mm 1 mps 706 mmHg 81%
    21:00 +19°C° 0 mm 1 mps 707 mmHg 84%
    22:00 +18°C° 0 mm 1 mps 707 mmHg 88%
    23:00 +16°C° 0 mm 1 mps 707 mmHg 89%
    Show more